#timestamp,LO_Frequency,Hit,StdDev 
1611331215.1,286047001.3,N
1611331216.0,286047001.3,N
1611331235.8,286046999.9,N
1611331255.6,286047001.5,N
1611331275.5,286047002.6,N
1611331295.3,286047000.0,N
1611331315.1,286047001.5,N
1611331335.9,286047001.3,N
1611331355.7,286047003.4,N
1611331375.6,286047004.4,N
1611331395.4,286047002.1,N
1611331415.2,286046999.9,N
1611331435.1,286046999.5,N
1611331436.0,286046999.5,N
1611331455.8,286046997.4,N
1611331475.6,286046996.7,N
1611331495.5,286046995.8,N
1611331515.3,286046997.3,N
1611331535.2,286046998.2,N
1611331555.9,286047000.5,N
1611331575.7,286047002.5,N
1611331595.6,286047000.2,N
1611331615.4,286047000.6,N
1611331635.2,286046998.3,N
1611331655.1,286046995.4,N
1611331656.0,286046995.4,N
1611331675.8,286046996.6,N
1611331695.7,286046999.1,N
1611331715.5,286046998.6,N
1611331735.3,286046998.3,N
1611331755.2,286046997.7,N
1611331775.0,286046997.5,N
1611331775.9,286046997.5,N
1611331795.8,286046997.9,N
1611331815.6,286046997.7,N
1611331835.4,286046997.5,N
1611331855.3,286046997.3,N
1611331875.1,286046996.8,N
1611331895.8,286046996.0,N
1611331915.7,286046998.1,N
1611331935.5,286047001.2,N
1611331955.4,286047002.8,N
1611331975.2,286047003.7,N
1611331995.0,286047002.6,N
1611331995.9,286047002.6,N
1611332015.8,286047000.2,N
1611332035.6,286047001.2,N
1611332055.4,286047002.6,N
1611332075.3,286047003.9,N
1611332095.1,286047004.1,N
1611332115.9,286047000.5,N
1611332135.7,286046999.7,N
1611332155.5,286047003.6,N
1611332175.4,286047004.2,N
1611332195.2,286047007.3,N
1611332215.0,286047005.5,N
1611332215.9,286047005.5,N
1611332235.8,286047003.8,N
1611332255.6,286047000.4,N
1611332275.5,286047000.6,N
1611332295.3,286047002.8,N
1611332315.1,286047005.9,N
1611332335.9,286047003.8,N
1611332355.7,286047002.3,N
1611332375.5,286047000.6,N
1611332395.4,286047001.1,N
1611332415.2,286046996.5,N
1611332435.1,286047000.5,N
1611332436.0,286047000.5,N
1611332455.8,286047001.3,N
1611332475.6,286047004.5,N
1611332495.5,286047006.0,N
1611332515.3,286047005.7,N
1611332535.1,286047005.7,N
1611332555.9,286047003.9,N
1611332575.7,286047001.9,N
1611332595.5,286047000.0,N
1611332615.4,286046999.9,N
1611332635.2,286046997.2,N
1611332655.1,286046998.5,N
1611332656.0,286046998.5,N
1611332675.8,286047005.3,N
1611332695.6,286047004.7,N
1611332715.5,286047005.9,N
1611332735.3,286047001.9,N
1611332755.1,286047000.7,N
1611332775.9,286047001.7,N
1611332795.7,286047001.5,N
1611332815.6,286047004.7,N
1611332835.4,286047005.2,N
1611332855.2,286047009.2,Y
1611332875.1,286047006.7,P
1611332876.0,286047006.7,P
1611332895.8,286047008.6,P
1611332915.7,286047009.6,Y
1611332935.5,286047001.9,P
1611332955.3,286047002.6,N
1611332975.2,286046998.5,N
1611332995.0,286046997.1,N
1611332995.9,286046997.1,N
1611333015.7,286046997.8,N
1611333035.6,286046998.8,N
1611333055.4,286046993.3,N
1611333075.3,286046992.3,N
1611333095.1,286046994.5,N
1611333096.0,286046994.5,N
1611333115.8,286046997.7,N
1611333135.7,286046999.4,N
1611333155.5,286047002.5,N
1611333175.3,286047000.0,N
1611333195.2,286046999.1,N
1611333215.0,286046997.1,N
1611333215.9,286046997.1,N
1611333235.8,286046995.7,N
1611333255.6,286046997.6,N
1611333275.4,286046996.9,N
1611333295.3,286046998.6,N
1611333315.1,286046999.0,N
1611333335.8,286047003.1,N
1611333355.7,286047000.3,N
1611333375.5,286047000.0,N
1611333395.4,286047002.8,N
1611333415.2,286047002.5,N
1611333435.0,286047004.8,N
1611333435.9,286047004.8,N
1611333455.8,286047009.0,N
1611333475.6,286047008.7,N
1611333495.5,286047006.8,N
1611333515.3,286047008.2,N
1611333535.1,286047012.4,N
1611333555.9,286047012.3,N
1611333575.7,286047011.3,N
1611333595.5,286047011.1,N
1611333615.4,286047011.6,N
1611333635.2,286047008.5,N
1611333655.1,286047010.7,N
1611333656.0,286047010.7,N
1611333675.8,286047009.4,N
1611333695.6,286047008.8,N
1611333715.5,286047006.8,N
1611333735.3,286047006.7,N
1611333755.1,286047009.0,N
1611333775.9,286047006.9,N
1611333795.7,286047007.2,N
1611333815.6,286047008.3,N
1611333835.4,286047007.0,N
1611333855.2,286047003.3,N
1611333875.1,286047006.6,N
1611333876.0,286047006.6,N
1611333895.8,286047007.4,N
1611333915.7,286047008.7,N
1611333935.5,286047011.9,Y
1611333955.3,286047007.6,P
1611333975.2,286047006.6,P
1611333995.9,286047006.0,P
1611334015.7,286047002.9,Y
1611334035.6,286046995.0,P
1611334055.4,286046996.0,N
1611334075.3,286046992.7,N
1611334095.1,286046993.1,N
1611334096.0,286046993.1,N
1611334115.8,286046992.1,N
1611334135.7,286046992.4,N
1611334155.5,286046995.1,N
1611334175.3,286046999.4,N
1611334195.2,286046998.8,N
1611334215.0,286046999.9,N
1611334215.9,286046999.9,N
1611334235.8,286047000.6,N
1611334255.6,286046994.9,N
1611334275.4,286046994.5,N
1611334295.3,286046995.2,N
1611334315.1,286046996.2,N
1611334335.8,286046994.6,N
1611334355.7,286046996.0,N
1611334375.5,286046995.7,N
1611334395.4,286046993.0,N
1611334415.2,286046989.1,Y
1611334435.0,286046990.8,P
1611334435.9,286046990.8,P
1611334455.8,286046994.2,N
1611334475.6,286046989.4,Y
1611334495.4,286046996.7,P
1611334515.3,286046999.0,N
1611334535.1,286046999.7,N
1611334555.9,286047000.9,N
1611334575.7,286046999.7,N
1611334595.5,286046996.5,N
1611334615.4,286046995.8,N
1611334635.2,286046999.3,N
1611334655.1,286046997.0,N
1611334656.0,286046997.0,N
1611334675.8,286046998.0,N
1611334695.6,286047002.3,N
1611334715.5,286047001.9,N
1611334735.3,286047003.6,N
1611334755.1,286047004.6,N
1611334775.9,286047007.3,N
1611334795.7,286047005.2,N
